DECAYED

STARLINK-1240, 45194 (Decayed)

Orbit data source: Space-Track

STARLINK-1240, 45194 was a payload satellite owned by SpaceX/Seattle (US) in LEO that was launched on Mon, 17 Feb 2020 UTC via an FALCON 9 launch vehicle from the Air Force Eastern Test Range (AFETR). Payload-class satellites include a variety of spacecraft equipped with specific instruments for various scientific and technological missions. These include communications satellites like Starlink; space stations such as the ISS; scientific satellites like the Hubble; Earth observation satellites from companies like Planet Labs, Umbra, and HawkEye 360; GPS; miniature CubeSats for education and research; and military/defense satellites.

Not visible in the next 10 days
Identifier
45194, 2020-012S
Orbit
Decayed
Country
Flag of USUS
Related business
Manufacturer
SpaceX/Seattle
Mission
Decayed Commercial Communications
Bus & Motor
STARLINK, Unknown motor
Mass
260 kg wet, ~248 kg dry
Launch date (UTC)
2020-02-17 (7 years ago)
Launch vehicle
FALCON 9
Launch site
Air Force Eastern Test Range (AFETR)
Object type
Payload
Rocket body
Debris
Shape & HBR
Box + 1 Pan, 10.1 m
Radar Cross Section
13.562 m², Large (>1 m²)

Expand to show TLE details & history
Last TLE update: 11 months ago

TLE from 11 months ago
0 STARLINK-1240
1 45194U 20012S   25274.60091229  .11523731  12499-4  43694-3 0  9998
2 45194  53.0288 336.2161 0002720 297.6364  62.4408 16.44165861311653
Epoch: 2025-10-01T14:25Z
TLE epoch observation values (Epoch: 2025-10-01T14:25:18.821Z)
Latitude
-0.00002°
Longitude
109.31407°
Altitude
154.851 km
Speed
7.815 km/s
True Right ascension
22h 24m 51s
True Declination
0° 00' 00"
Sunlit
Object was in full shadow at epoch
Visualization orbit readout
Latitude
Unknown
Longitude
Unknown
Altitude
Unknown
Speed
Unknown
Apparent Right ascension
Unknown
Apparent Declination
Unknown
Sunlit
N/A
Visualization observer readout
Local Sidereal Time
00:11:50
Azimuth
Unknown
Elevation
Unknown
Doppler factor
Unknown
Orbital elements
Apogee altitude
156.812 km
Perigee altitude
153.258 km
Semi-major axis
6,533.172 km
Eccentricity
0.00027
Inclination
53.0288°
RAAN
336.2161°
Arg. of periapsis
297.6364°
True anomaly
62.46844°
Mean anomaly
62.4408°
Eccentric anomaly
62.45462°
Mean motion
4.11014 °/min
Orbital period
87.59 mins
BSTAR
0.00043694
Loading maneuver chart data...
Computing Atmospheric mass density...

Documentation

Showing up to 5 results
|